Location: Ceske Budejovice
(48.9830°N, 14.4670°E)
Time: 03:20:36
(UTC+01:00)

ISS - Pass Details

Date: 04 October 2020
Orbit: 417 x 420 km, 51.6° (Epoch: 25 October)

Event Time Altitude Azimuth Distance (km) Brightness Sun altitude
Rises 20:20:20 0° 287° (WNW) 2,369 1.8 -18.2°
Reaches altitude 10° 20:22:41 10° 273° (W) 1,502 0.2 -18.5°
Maximum altitude 20:25:27 24° 218° (SW) 924 -1.8 -19.0°
Enters shadow 20:26:34 20° 188° (S) 1,039 -1.9 -19.2°
